Flag for Canada Weather past 2 weeks in Chilliwack, British Columbia, Canada

Now
67 °F

Mild.


Feels Like: 67 °F
Forecast: 55 / 85 °F
Wind: 2 mph from Southeast

Location: Agassiz

Current Time: Jul 28, 2014 at 10:58:37 PM

Latest Report: Jul 28, 2014 at 10:00 PM


Visibility: N/A

Pressure: 30.06 "Hg

Humidity: 81%

Dew point: 61 °F

Location of ChilliwackLocation

Historic Weather in Chilliwack — Graph

°F

Chilliwack temperature yesterday

Maximum temperature yesterday: 82 °F (at 5:00 PM)
Minimum temperature yesterday: 55 °F (at 2:00 AM)
Average temperature yesterday: 69 °F

Past Weeks' High & Low Weather Summary

 TemperatureHumidityPressure
High86 °F (Jul 15, 5:00 PM)100% (Jul 19, 10:00 AM)30.20 "Hg (Jul 19, 10:00 AM)
Low53 °F (Jul 22, 6:00 AM)44% (Jul 14, 6:00 PM)29.87 "Hg (Jul 16, 9:00 PM)
Average66 °F77%30.03 "Hg
* Reported Jul 13 9:00 PM — Jul 28 9:00 PM, Chilliwack, Weather by CustomWeather, © 2014

Note: Actual official high and low records may vary slightly from our data, if they occured in-between our weather recording intervals... More about our weather records

Advertising

Chilliwack weather history for previous 24 hours

 ConditionsComfort  
Time TempWeatherWind HumidityBarometerVisibility
9:00 PM
Jul 28
71 °FMild.1 mph76%30.05 "HgN/A
8:00 PM78 °FWarm.1 mph66%30.03 "HgN/A
7:00 PM84 °FWarm.3 mph49%30.03 "HgN/A
6:00 PM85 °FWarm.5 mph44%30.04 "HgN/A
5:00 PM86 °FWarm.3 mph47%30.05 "HgN/A
4:00 PM85 °FWarm.5 mph49%30.06 "HgN/A
3:00 PM83 °FWarm.6 mph55%30.07 "HgN/A
1:00 PM80 °FWarm.5 mph55%30.09 "HgN/A
12:00 PM78 °FWarm.5 mph57%30.09 "HgN/A
11:00 AM76 °FMild.3 mph57%30.10 "HgN/A
10:00 AM74 °FMild.1 mph59%30.10 "HgN/A
9:00 AM72 °FMild.1 mph66%30.12 "HgN/A
8:00 AM68 °FMild.3 mph74%30.12 "HgN/A
7:00 AM63 °FMild.2 mph82%30.12 "HgN/A
6:00 AM59 °FCool.1 mph92%30.12 "HgN/A
5:00 AM60 °FCool.1 mph90%30.11 "HgN/A
4:00 AM64 °FMild.3 mph81%30.11 "HgN/A
3:00 AM63 °FMild.2 mph85%30.10 "HgN/A
2:00 AM59 °FCool.1 mph97%30.11 "HgN/A
1:00 AM58 °FCool.No wind100%30.11 "HgN/A
12:00 AM62 °FCool.1 mph92%30.10 "HgN/A
11:00 PM
Jul 27
64 °FMild.1 mph88%30.09 "HgN/A
10:00 PM65 °FMild.No wind83%30.08 "HgN/A
Weather by CustomWeather, © 2014

See weather overviewHow to use our weather pages